Volver al catálogo

QPS-SAR-10 WADATSUMI-I

ActivoCienciaVLEO
NORAD 64055·PAYLOAD·🇯🇵 Japan

Lanzado May 17, 2025 desde Rocket Lab Launch Complex 1

Loading…

Próximos Pases (próximas 24 horas)

TLE

ActualizadoSource: Space-Track

Época: Sep 14, 2026, 14:55 UTC

1 64055U 25104A   26257.62178560  .00003569  00000-0  27833-3 0  9998
2 64055  42.0033 145.4521 0014012 207.8752 152.1324 15.02410427 72884

Sigue QPS-SAR-10 WADATSUMI-I en tiempo real con AllMySat

Download on the App Store